Location: Harburg
(48.7667°N, 10.6667°E)
Time: 08:57:07
(UTC+00:00)

CZ-4 R/B - Pass Details

Date: 18 September 2020
Orbit: 530 x 600 km, 97.7° (Epoch: 27 October)

Event Time Altitude Azimuth Distance (km) Brightness Sun altitude
Rises 18:44:31 0° 201° (SSW) 2,837 5.0 -14.0°
Reaches altitude 10° 18:47:06 10° 217° (SW) 1,940 4.3 -14.4°
Maximum altitude 18:50:21 21° 268° (W) 1,351 4.2 -14.9°
Drops below altitude 10° 18:53:37 10° 318° (NW) 1,944 5.1 -15.4°
Sets 18:56:13 0° 334° (NNW) 2,844 5.7 -15.8°
